TimeAEST,TemperatureF,Dew PointF,Humidity,Sea Level PressureIn,VisibilityMPH,Wind Direction,Wind SpeedMPH,Gust SpeedMPH,PrecipitationIn,Events,Conditions,WindDirDegrees,DateUTC
12:00 AM,76,69,75,29.93,16,SSE,8.1,,,Rain,Light Rain Showers,160,2011-11-14 14:00:00
12:00 AM,75.2,69.8,83,29.92,6.2,SSE,8.1,-,N/A,,Scattered Clouds,160,2011-11-14 14:00:00
12:30 AM,75.2,69.8,83,29.92,6.2,SE,6.9,-,N/A,,Scattered Clouds,130,2011-11-14 14:30:00
1:00 AM,76,69,73,29.91,,SSE,6.9,,,,,160,2011-11-14 15:00:00
1:00 AM,75.2,69.8,83,29.89,6.2,SSE,6.9,-,N/A,,Scattered Clouds,160,2011-11-14 15:00:00
1:30 AM,75.2,69.8,83,29.89,6.2,SSE,8.1,-,N/A,,Scattered Clouds,160,2011-11-14 15:30:00
2:00 AM,75.2,69.8,83,29.89,6.2,SSE,6.9,-,N/A,,Scattered Clouds,150,2011-11-14 16:00:00
2:30 AM,75.2,69.8,83,29.89,3.7,SSE,6.9,-,N/A,Rain,Light Rain Showers,160,2011-11-14 16:30:00
2:56 AM,75.2,69.8,83,29.89,5.0,SSE,6.9,-,N/A,,Scattered Clouds,150,2011-11-14 16:56:00
3:00 AM,74,70,82,29.89,5,SSE,6.9,,,Rain,Light Rain Showers,160,2011-11-14 17:00:00
3:00 AM,75.2,69.8,83,29.89,5.0,SSE,6.9,-,N/A,,Scattered Clouds,160,2011-11-14 17:00:00
3:30 AM,75.2,69.8,83,29.89,6.2,South,8.1,-,N/A,,Scattered Clouds,180,2011-11-14 17:30:00
4:00 AM,75,69,77,29.91,,South,6.9,,,,,170,2011-11-14 18:00:00
4:00 AM,75.2,69.8,83,29.89,6.2,South,6.9,-,N/A,,Mostly Cloudy,170,2011-11-14 18:00:00
4:30 AM,75.2,68.0,78,29.89,6.2,SSE,9.2,-,N/A,,Scattered Clouds,160,2011-11-14 18:30:00
5:00 AM,75.2,68.0,78,29.89,6.2,SSE,9.2,-,N/A,,Scattered Clouds,160,2011-11-14 19:00:00
5:30 AM,75.2,68.0,78,29.89,6.2,South,9.2,-,N/A,,Partly Cloudy,170,2011-11-14 19:30:00
6:00 AM,74,68,77,29.92,16,SSE,8.1,,,,Partly Cloudy,160,2011-11-14 20:00:00
6:00 AM,75.2,68.0,78,29.92,6.2,SSE,8.1,-,N/A,,Partly Cloudy,160,2011-11-14 20:00:00
6:30 AM,75.2,68.0,78,29.92,6.2,South,9.2,-,N/A,,Partly Cloudy,170,2011-11-14 20:30:00
7:00 AM,77,68,66,29.95,,SSE,9.2,,,,,160,2011-11-14 21:00:00
7:00 AM,77.0,68.0,74,29.92,6.2,SSE,9.2,-,N/A,,Partly Cloudy,160,2011-11-14 21:00:00
7:30 AM,78.8,68.0,69,29.92,6.2,SSE,9.2,-,N/A,,Mostly Cloudy,150,2011-11-14 21:30:00
8:00 AM,78.8,69.8,74,29.95,6.2,SSE,9.2,-,N/A,,Scattered Clouds,160,2011-11-14 22:00:00
8:30 AM,82.4,68.0,62,29.95,6.2,SE,13.8,-,N/A,,Partly Cloudy,140,2011-11-14 22:30:00
9:00 AM,82,67,51,29.95,19,SE,15.0,,,,Partly Cloudy,140,2011-11-14 23:00:00
9:00 AM,82.4,66.2,58,29.95,6.2,SE,15.0,-,N/A,,Partly Cloudy,140,2011-11-14 23:00:00
9:30 AM,84.2,64.4,51,29.95,6.2,SE,16.1,-,N/A,,Partly Cloudy,130,2011-11-14 23:30:00
10:00 AM,85,65,41,29.96,,ESE,18.4,,,,,120,2011-11-15 00:00:00
10:00 AM,84.2,64.4,51,29.95,6.2,ESE,18.4,-,N/A,,Partly Cloudy,120,2011-11-15 00:00:00
10:30 AM,84.2,64.4,51,29.95,6.2,SE,17.3,-,N/A,,Partly Cloudy,130,2011-11-15 00:30:00
11:00 AM,84.2,64.4,51,29.95,6.2,SE,18.4,-,N/A,,Partly Cloudy,140,2011-11-15 01:00:00
11:30 AM,86.0,66.2,51,29.95,6.2,SE,18.4,-,N/A,,Partly Cloudy,140,2011-11-15 01:30:00
12:00 PM,85,67,44,29.94,19,SE,16.1,,,,Partly Cloudy,130,2011-11-15 02:00:00
12:00 PM,86.0,66.2,51,29.92,6.2,SE,16.1,-,N/A,,Partly Cloudy,130,2011-11-15 02:00:00
12:30 PM,84.2,66.2,55,29.92,6.2,SE,17.3,-,N/A,,Partly Cloudy,130,2011-11-15 02:30:00
1:00 PM,84,66,45,29.93,,SE,17.3,,,,,140,2011-11-15 03:00:00
1:00 PM,84.2,66.2,55,29.92,6.2,SE,17.3,-,N/A,,Scattered Clouds,140,2011-11-15 03:00:00
1:30 PM,86.0,66.2,51,29.89,6.2,SE,16.1,-,N/A,,Scattered Clouds,130,2011-11-15 03:30:00
2:00 PM,84.2,66.2,55,29.89,6.2,ESE,18.4,-,N/A,,Partly Cloudy,120,2011-11-15 04:00:00
2:30 PM,86.0,66.2,51,29.89,6.2,SE,18.4,-,N/A,,Scattered Clouds,130,2011-11-15 04:30:00
3:00 PM,85,69,49,29.89,19,ESE,20.7,,,,Partly Cloudy,120,2011-11-15 05:00:00
3:00 PM,86.0,68.0,55,29.89,6.2,ESE,20.7,-,N/A,,Scattered Clouds,120,2011-11-15 05:00:00
3:30 PM,84.2,68.0,58,29.89,6.2,SE,19.6,-,N/A,,Partly Cloudy,130,2011-11-15 05:30:00
4:00 PM,83,67,49,29.89,,ESE,19.6,,,,,120,2011-11-15 06:00:00
4:00 PM,84.2,66.2,55,29.89,6.2,ESE,19.6,-,N/A,,Partly Cloudy,120,2011-11-15 06:00:00
4:30 PM,82.4,68.0,62,29.89,6.2,ESE,18.4,-,N/A,,Partly Cloudy,120,2011-11-15 06:30:00
5:00 PM,82.4,68.0,62,29.89,6.2,SE,17.3,-,N/A,,Partly Cloudy,130,2011-11-15 07:00:00
5:30 PM,80.6,66.2,61,29.89,6.2,SE,16.1,-,N/A,,Partly Cloudy,130,2011-11-15 07:30:00
6:00 PM,80.6,68.0,65,29.89,6.2,SE,16.1,-,N/A,,Partly Cloudy,130,2011-11-15 08:00:00
6:30 PM,78.8,68.0,69,29.89,6.2,SE,15.0,-,N/A,,Partly Cloudy,130,2011-11-15 08:30:00
7:00 PM,78,68,63,29.93,,SE,12.7,,,,,130,2011-11-15 09:00:00
7:00 PM,78.8,68.0,69,29.92,6.2,SE,12.7,-,N/A,,Partly Cloudy,130,2011-11-15 09:00:00
7:30 PM,77.0,68.0,74,29.92,6.2,SE,11.5,-,N/A,,Partly Cloudy,130,2011-11-15 09:30:00
8:00 PM,77.0,68.0,74,29.92,6.2,SE,9.2,-,N/A,,Partly Cloudy,140,2011-11-15 10:00:00
8:30 PM,77.0,68.0,74,29.95,6.2,South,5.8,-,N/A,,Partly Cloudy,180,2011-11-15 10:30:00
9:00 PM,77,68,66,29.95,19,South,5.8,,,,Partly Cloudy,170,2011-11-15 11:00:00
9:00 PM,77.0,68.0,74,29.95,6.2,South,5.8,-,N/A,,Partly Cloudy,170,2011-11-15 11:00:00
9:30 PM,75.2,68.0,78,29.95,6.2,SSE,6.9,-,N/A,,Partly Cloudy,160,2011-11-15 11:30:00
10:00 PM,75.2,68.0,78,29.95,6.2,South,6.9,-,N/A,,Partly Cloudy,170,2011-11-15 12:00:00
11:00 PM,77.0,68.0,74,29.95,6.2,South,9.2,-,N/A,,Scattered Clouds,170,2011-11-15 13:00:00
11:30 PM,77.0,68.0,74,29.95,6.2,South,8.1,-,N/A,,Partly Cloudy,170,2011-11-15 13:30:00